RH
24 25 29 33 28 27 27 25 33 33 33 40 37 37 39 33 32 33 34 34 36 37 37 38 38 39 42 43 42 40 38 42 45 43 50 54 51 53 53 53 55 55 52 53 57 56 56 54 53 55 55 56 58 58 57 54 49 44 42 41 41 42 43 42 40 39 42 50 55 56 55 53 50 50 47 40 38 42 45 43 38 35 33 33 33 31 31 29 25 22 20 20 23 24 24 24 23
23 25 26 27 23 28 32 26 37 37 33 42 38 37 38 32 33 35 34 35 39 39 37 39 40 41 42 42 40 40 42 43 45 46 51 53 53 54 53 53 55 55 53 54 58 57 58 57 54 55 55 57 58 58 58 55 49 43 40 40 41 42 43 42 40 39 43 52 59 59 57 53 51 49 45 42 44 46 46 42 37 35 35 34 32 32 32 31 26 23 22 24 25 25 26 25 24
22 24 25 25 23 27 30 27 37 39 38 47 41 34 34 34 36 35 34 36 41 41 40 41 43 44 42 43 43 43 46 45 46 48 51 54 54 54 54 54 54 54 53 52 56 58 59 59 56 55 57 57 59 59 58 54 47 42 41 40 42 43 43 42 41 42 45 53 60 61 58 54 51 48 47 48 50 50 47 40 36 35 35 34 34 33 33 32 29 24 24 25 26 26 26 26 26
21 23 24 25 27 26 27 30 36 39 44 49 45 35 32 37 37 36 35 37 40 42 43 44 46 47 45 46 47 44 45 47 49 49 49 52 53 54 55 54 53 53 51 49 54 58 58 59 56 56 57 57 59 59 57 51 44 42 41 41 43 44 45 44 41 43 47 54 59 60 58 54 49 49 53 55 54 52 47 41 37 35 35 35 35 35 34 34 31 27 26 26 27 28 28 28 29
21 23 23 23 27 28 28 31 32 37 45 45 45 37 33 39 37 37 38 38 40 41 44 45 47 48 47 48 46 46 48 49 50 50 49 51 53 53 54 54 55 53 52 52 54 57 57 57 57 56 57 58 58 58 55 48 44 43 43 43 43 45 47 45 41 42 50 57 60 60 58 52 49 54 59 57 56 53 48 42 37 36 36 35 35 36 35 36 35 32 29 26 28 31 31 31 31
20 21 22 20 25 29 28 33 32 35 38 36 41 37 34 38 37 40 40 39 40 41 44 45 46 44 46 49 47 49 49 48 49 49 49 51 53 53 53 53 56 56 54 54 55 58 58 57 59 60 60 61 59 57 51 44 43 44 45 46 45 47 47 46 42 41 50 59 62 61 57 51 51 58 61 59 58 54 48 43 38 36 36 35 35 35 36 36 36 36 31 27 31 33 32 32 33
20 22 22 19 21 25 28 35 35 36 34 29 35 36 36 38 37 42 42 42 42 42 44 43 44 43 47 49 49 50 46 46 49 49 50 50 51 52 53 54 58 59 57 56 56 60 60 59 64 65 65 66 62 57 49 42 42 45 48 48 48 49 47 47 44 42 51 60 63 60 56 53 55 62 63 61 61 55 50 44 39 37 35 36 34 34 35 36 35 36 33 29 33 34 32 33 33
19 22 23 20 22 24 29 35 34 34 33 29 31 33 35 37 38 42 43 45 44 44 43 43 43 44 49 47 47 51 46 46 48 48 49 49 50 49 51 57 61 61 61 59 59 61 61 61 67 70 70 70 66 57 50 45 44 46 49 50 51 52 49 48 46 46 53 61 64 59 55 57 61 66 65 65 63 57 51 46 42 39 37 38 36 34 33 34 34 37 36 30 32 33 33 34 34
17 19 19 19 22 25 30 33 31 31 30 28 29 31 34 35 37 41 42 43 43 43 43 44 43 43 48 46 46 51 49 48 45 45 47 48 48 48 49 56 62 64 63 62 63 61 62 67 71 75 76 74 68 58 50 48 49 51 52 51 53 54 52 50 50 51 57 64 63 56 55 62 67 69 69 69 66 60 54 48 46 43 42 42 38 35 31 31 32 34 34 30 31 34 34 34 35
17 19 20 19 22 26 29 31 30 30 28 28 29 31 34 36 36 38 40 41 41 42 42 41 39 41 45 45 47 50 47 47 46 45 45 47 48 47 49 54 61 63 63 65 64 61 65 71 71 73 74 73 71 61 52 48 51 53 54 54 55 58 57 56 58 57 59 63 60 54 56 65 71 72 72 72 69 62 55 51 49 46 46 42 38 36 30 28 29 27 30 31 33 34 34 35 36
19 17 19 20 23 27 30 31 30 29 28 25 28 31 33 34 34 35 37 39 39 39 40 38 38 41 43 43 46 47 43 46 49 48 44 45 48 47 49 54 58 61 61 64 64 63 66 68 66 68 70 70 72 67 56 50 50 51 53 55 56 60 59 59 61 57 57 59 57 54 59 68 73 75 74 73 70 62 55 51 50 47 46 41 37 36 30 29 29 25 30 34 34 35 35 36 36
22 16 16 22 26 30 31 30 27 26 27 25 26 29 30 31 31 33 34 36 36 36 37 37 39 40 41 43 45 42 40 47 50 46 42 45 49 49 50 53 57 59 60 62 62 63 65 65 66 68 68 69 72 71 62 55 52 51 52 53 55 57 55 57 58 51 51 57 55 56 63 72 76 76 75 74 68 60 55 52 50 47 45 40 36 35 30 31 30 28 33 35 36 37 37 37 37
21 18 19 25 27 29 26 24 24 22 26 27 26 26 27 29 31 32 32 33 33 35 37 36 37 36 38 41 43 41 41 48 48 43 43 47 51 51 50 53 56 58 59 61 61 60 62 66 69 69 67 68 71 73 69 62 56 54 52 50 53 56 54 58 56 46 48 54 53 57 67 74 76 77 77 74 66 58 55 53 50 48 46 39 36 35 30 30 31 32 35 37 38 38 37 38 38
18 17 23 29 24 23 23 23 23 21 28 29 25 25 25 28 30 30 31 32 33 36 37 36 34 34 38 39 42 45 44 48 45 41 45 49 52 51 51 53 55 58 58 61 61 59 61 67 72 73 70 68 70 72 71 66 60 56 53 49 53 58 60 61 54 44 47 51 53 62 71 76 77 77 76 71 63 57 55 54 51 48 46 40 38 36 32 31 33 35 36 38 39 38 38 39 39
17 16 22 29 23 21 21 23 23 23 30 27 23 23 25 28 28 29 31 33 37 39 38 37 37 38 41 38 41 46 45 47 45 44 48 50 52 52 52 53 56 58 58 61 61 60 64 67 71 75 74 69 70 72 68 66 64 57 53 52 54 60 64 60 50 43 45 48 56 67 74 78 79 78 73 67 60 57 55 55 52 49 45 41 39 38 35 34 36 37 37 38 39 39 40 40 40
17 17 20 25 22 21 20 21 21 24 29 24 22 23 23 28 29 31 35 36 39 40 38 39 40 39 42 41 42 44 45 47 46 47 52 51 52 53 53 53 57 59 58 61 63 63 66 68 70 74 74 71 72 74 69 69 68 59 55 57 57 61 62 55 47 46 48 53 62 70 75 78 79 76 69 63 58 56 56 54 52 48 43 41 40 38 36 36 37 37 38 38 40 42 42 41 41
17 19 22 24 22 21 21 21 21 24 27 23 23 24 25 30 33 35 38 37 38 39 39 39 41 41 42 43 42 40 44 48 45 49 52 51 52 53 53 53 58 60 59 62 64 66 67 69 73 75 74 73 73 73 72 73 69 62 59 63 64 61 59 54 52 52 55 62 68 72 76 78 79 73 67 64 58 55 55 53 51 47 43 42 41 40 38 37 36 37 40 40 41 42 41 41 40
19 22 24 25 24 23 22 21 22 23 24 23 24 27 29 33 36 39 39 39 38 38 39 39 42 43 42 40 38 38 43 49 48 49 51 51 52 53 53 53 56 60 60 61 64 66 67 70 75 76 75 75 75 74 76 72 68 66 63 68 71 64 61 60 59 60 64 69 71 73 77 79 80 73 67 65 59 55 54 52 50 46 43 43 42 43 41 40 38 37 40 40 41 41 40 44 45
21 23 25 26 25 23 21 21 22 22 24 25 27 29 32 33 36 39 38 40 41 40 40 40 42 46 45 39 37 38 42 48 49 49 49 50 50 51 52 53 56 59 60 63 65 65 66 70 72 72 73 75 78 76 71 68 69 69 66 71 74 70 70 68 68 70 71 70 72 75 78 78 79 73 67 65 60 56 53 52 50 46 45 45 44 44 42 43 42 40 39 38 39 38 42 48 49
21 22 25 26 24 21 21 21 22 24 26 28 29 30 32 32 33 35 37 38 40 42 42 42 43 46 48 43 38 39 42 48 49 48 48 48 49 50 51 53 57 59 61 63 64 65 65 69 71 72 73 73 76 71 64 67 70 69 71 75 76 75 76 77 77 75 73 73 74 76 75 73 74 71 64 59 56 55 53 50 50 47 46 46 45 47 46 44 43 43 41 38 38 39 44 48 46
21 22 23 24 22 22 21 21 23 26 29 30 30 30 31 32 33 34 36 39 40 43 45 44 41 42 46 44 39 38 42 48 49 48 48 48 50 51 53 55 58 61 62 62 64 66 63 66 71 72 73 72 74 70 64 67 70 68 71 73 73 72 74 77 77 74 74 76 76 76 71 66 70 70 62 56 58 60 60 55 52 51 51 51 50 53 55 49 48 51 47 44 46 45 45 47 47
21 20 22 22 22 23 22 21 24 27 28 28 29 29 29 32 33 34 35 37 38 42 43 43 41 39 42 41 38 38 43 48 49 48 48 49 50 51 53 56 59 62 62 62 64 66 64 67 72 75 75 72 74 73 67 66 67 68 70 70 69 69 71 74 75 74 76 76 75 73 68 65 67 67 61 60 62 61 62 59 58 60 60 60 57 59 60 53 54 57 54 51 52 50 47 49 52
24 22 23 24 24 23 22 22 23 26 26 25 26 26 27 29 32 33 33 33 35 37 39 41 41 41 42 39 37 39 44 48 48 47 48 49 49 51 52 55 59 62 63 63 64 64 66 70 74 77 77 72 72 73 70 66 64 67 69 68 67 69 70 73 76 77 75 73 73 69 66 67 64 61 58 58 57 58 60 56 60 64 63 64 61 61 60 55 56 55 55 55 52 52 51 52 54
25 24 24 25 25 23 23 24 25 25 24 23 24 24 27 28 30 32 31 30 32 35 39 41 42 43 42 40 38 41 44 46 46 48 48 47 48 50 51 53 57 59 63 65 64 63 64 68 69 70 71 72 71 70 70 66 62 64 67 65 68 72 70 73 77 77 74 70 71 67 66 68 66 65 64 61 58 59 60 53 57 63 62 62 59 59 60 57 57 55 55 54 52 53 53 53 54
23 22 23 23 22 22 24 25 25 23 22 23 24 25 25 27 29 30 30 28 29 33 38 40 40 42 42 41 40 41 44 43 44 46 45 44 46 49 51 52 53 57 61 63 64 62 60 62 65 65 67 70 70 69 68 64 61 63 65 66 69 72 71 75 76 75 75 70 69 69 69 71 70 71 72 71 67 63 60 52 54 61 62 62 59 58 59 58 57 58 57 54 55 55 54 54 53
20 20 20 21 21 22 24 24 24 22 22 23 24 24 22 24 27 27 27 27 27 33 37 39 40 41 43 43 40 41 42 40 42 46 44 43 45 47 51 53 55 57 59 62 63 62 60 61 63 64 66 69 68 68 66 61 57 58 64 68 70 70 70 73 74 75 77 73 71 70 72 74 74 75 75 75 72 68 64 55 52 59 61 60 60 60 59 58 57 58 60 59 61 62 60 58 55
18 18 17 19 21 22 23 22 22 21 21 24 23 21 20 22 24 23 25 26 28 33 36 38 39 42 44 42 40 40 40 36 38 44 44 43 44 45 48 52 55 57 58 61 62 63 63 65 66 66 66 67 67 67 65 59 53 55 62 68 73 76 71 69 71 74 76 76 73 70 71 74 74 75 74 73 71 69 69 62 56 59 59 58 60 62 58 55 56 59 62 61 62 65 65 63 60
18 17 17 18 20 22 22 21 21 20 22 24 22 20 20 22 22 20 23 27 29 31 32 36 37 40 43 40 38 39 38 35 35 40 44 44 43 43 45 47 50 53 56 58 61 63 63 65 68 68 66 67 67 66 67 61 53 57 65 66 72 75 70 67 69 71 75 76 72 69 70 73 74 74 72 72 69 68 70 68 63 61 62 61 61 64 60 55 56 58 59 60 61 63 63 64 62
17 17 17 18 19 20 20 20 20 20 21 23 22 21 21 22 21 20 24 28 29 29 30 32 33 37 40 40 40 40 37 34 32 35 39 43 43 41 43 43 44 47 49 52 56 59 60 62 64 66 66 67 67 66 68 66 59 60 65 67 69 71 71 70 70 71 73 74 72 69 72 75 76 74 73 71 69 70 71 69 68 64 65 66 62 63 63 58 57 56 57 60 62 63 64 65 64
16 17 17 17 18 19 18 18 19 19 21 21 21 21 24 26 23 22 25 27 28 27 28 29 31 33 37 40 41 43 39 33 30 31 34 39 42 42 43 43 42 42 43 44 48 53 56 58 60 62 63 65 67 68 68 69 66 61 61 65 69 69 73 74 71 71 72 72 71 69 72 75 76 75 73 71 69 71 71 71 72 68 65 64 62 63 65 62 59 58 58 60 61 61 65 67 65
15 16 17 17 19 20 18 17 18 19 21 21 20 21 25 27 25 23 24 25 25 25 25 26 28 31 34 37 38 40 40 34 31 30 30 34 39 42 43 42 41 41 41 39 41 46 50 51 54 57 61 63 66 69 71 72 72 67 66 70 72 73 74 72 70 71 72 71 69 68 71 72 73 74 71 70 68 69 71 73 72 69 66 64 67 67 65 65 60 56 55 58 60 60 64 69 69
16 17 17 17 18 19 17 17 17 18 20 19 20 20 22 22 22 22 22 23 24 23 23 25 27 29 32 35 35 37 38 37 34 31 28 31 37 41 43 42 41 40 40 40 39 40 43 44 47 52 57 61 66 68 71 74 75 75 78 80 76 75 75 70 68 69 71 70 68 67 70 71 72 72 69 67 67 68 71 73 71 71 69 68 70 67 63 65 61 54 54 57 60 62 65 70 74
17 17 18 17 18 19 17 18 17 18 19 19 20 20 19 19 20 21 22 21 22 23 23 24 25 28 30 32 34 35 36 38 38 34 29 29 35 40 42 43 41 40 40 41 40 38 39 41 45 49 53 59 65 68 70 74 77 78 83 82 75 72 74 74 72 69 69 69 68 68 69 70 72 72 69 66 67 68 69 72 72 73 74 72 72 67 62 63 60 55 55 57 61 65 67 69 74
19 20 19 18 17 18 18 18 18 18 18 19 19 19 18 19 19 20 22 21 21 22 22 23 24 25 28 30 32 33 35 37 38 37 31 30 33 38 42 44 42 40 40 41 40 38 39 40 44 49 51 57 63 67 72 77 80 80 80 78 72 71 75 79 78 73 70 69 67 67 67 69 71 71 69 66 68 70 72 74 72 73 77 76 73 68 62 59 56 54 54 56 62 65 68 71 73
22 22 20 18 17 17 18 19 18 17 17 18 19 18 17 18 18 19 21 21 20 21 22 23 23 23 26 28 30 31 33 35 36 38 34 31 32 35 41 45 43 41 40 40 40 39 39 39 43 49 51 56 63 69 75 80 83 82 80 78 73 73 76 78 80 76 73 71 68 67 68 70 71 70 68 67 69 72 75 77 74 74 77 78 74 69 64 58 54 51 50 53 59 64 68 70 70
23 22 20 19 18 17 18 19 18 17 17 17 17 17 17 17 18 18 20 21 22 21 22 23 22 22 24 26 28 30 32 33 35 38 37 34 33 33 38 44 44 43 40 38 37 37 39 39 42 50 53 58 64 68 73 80 84 83 82 81 78 78 78 77 76 75 74 73 70 71 72 73 73 71 71 71 73 75 78 78 76 75 78 80 77 72 69 64 58 54 54 55 57 62 69 69 67
22 22 21 20 19 19 19 19 19 17 18 18 17 18 17 17 18 17 18 21 23 23 22 23 22 23 23 24 26 28 30 31 33 37 37 35 33 31 35 41 44 45 42 37 35 37 39 38 41 50 54 59 66 67 69 76 81 81 82 82 81 81 81 79 74 72 75 75 73 73 74 74 75 75 75 75 76 77 78 79 78 77 78 80 79 75 73 70 66 63 60 61 62 66 71 69 66
22 22 22 21 21 20 19 20 19 19 19 19 18 18 17 17 18 18 17 19 21 23 23 24 24 23 23 23 24 25 28 29 32 36 35 32 32 32 34 38 41 45 43 37 35 38 40 38 40 50 54 57 64 65 67 70 73 77 80 82 83 83 81 80 75 71 73 75 75 74 74 76 76 76 76 77 78 79 78 78 79 79 79 80 80 77 74 73 73 71 66 68 70 70 72 69 66
21 22 22 22 21 21 20 20 21 20 20 21 20 19 18 17 17 17 17 18 19 21 22 22 23 24 24 23 22 23 26 27 31 34 31 29 30 30 34 37 38 42 45 40 37 37 39 38 39 46 52 54 60 64 68 71 73 77 79 82 85 84 81 80 77 73 73 74 75 75 74 76 76 75 76 76 78 79 78 78 80 80 81 80 80 80 78 76 76 76 74 76 78 74 73 71 68
21 21 22 23 22 22 21 21 22 22 21 21 21 20 19 18 17 16 16 17 17 18 20 21 22 23 23 22 22 22 24 26 31 34 32 30 29 28 33 37 36 39 46 44 39 37 38 38 37 42 49 53 57 64 69 71 75 79 80 83 86 85 83 82 79 76 74 75 75 75 75 75 74 74 74 75 77 79 79 79 81 82 81 80 80 80 79 78 78 78 76 78 81 80 79 75 71
20 20 21 22 23 23 22 22 23 23 23 23 23 22 21 19 18 18 18 17 16 17 18 20 21 23 24 23 21 22 23 26 29 34 34 30 27 27 30 34 33 33 38 39 37 36 36 37 37 40 46 50 55 62 67 72 78 80 78 81 84 84 84 82 80 79 76 75 76 78 77 75 74 73 73 75 77 79 79 80 81 82 81 81 80 79 79 79 78 78 76 77 79 82 84 81 75
21 21 20 21 21 21 22 23 24 23 25 25 25 25 23 22 21 20 20 18 17 18 18 19 21 22 24 24 23 22 24 25 27 31 33 29 25 25 28 31 31 30 31 32 34 34 34 36 36 38 44 48 51 58 66 75 81 79 76 78 80 81 82 81 80 79 77 77 79 80 78 76 74 72 73 76 77 79 80 81 81 82 81 80 79 79 80 79 77 76 76 76 79 81 83 84 80
22 22 22 21 20 20 22 23 24 24 25 25 25 26 24 23 24 23 22 20 18 17 17 18 19 21 23 24 23 22 23 25 26 29 32 31 25 24 27 30 30 30 29 30 31 33 35 36 35 35 41 46 49 54 63 73 78 77 75 75 76 77 78 79 79 79 79 79 79 78 76 75 74 74 74 77 78 78 78 79 80 82 83 81 78 77 78 78 78 78 78 77 79 81 82 84 83
23 23 23 22 21 21 22 24 25 25 26 25 25 25 24 24 24 25 25 23 19 18 17 18 18 19 20 22 22 22 21 23 25 27 31 32 27 24 27 31 31 31 30 29 29 32 35 38 37 35 38 41 45 50 56 62 68 72 74 74 75 77 77 77 77 79 79 79 78 77 76 76 76 76 77 78 78 78 77 78 80 81 82 81 78 77 77 77 77 79 80 79 79 81 80 81 82
24 24 23 23 22 22 23 24 26 26 27 26 25 25 25 24 24 26 26 26 23 20 19 19 19 18 19 20 21 22 22 22 23 25 29 32 28 25 27 30 31 32 31 29 28 29 31 35 39 38 37 39 42 44 49 55 59 62 65 68 71 73 75 76 77 79 79 78 79 78 79 79 78 78 79 79 78 78 77 76 78 78 78 79 79 79 79 78 78 79 81 80 79 79 79 79 80
27 25 26 26 25 25 25 25 26 27 28 27 26 25 25 24 24 26 27 28 25 22 20 19 18 18 19 21 22 23 22 22 23 24 27 29 26 25 28 29 31 32 31 30 28 28 29 31 36 40 39 38 40 42 45 50 53 54 53 56 60 62 66 71 74 77 77 75 77 78 78 80 80 80 79 79 78 78 80 77 75 75 74 76 78 79 79 78 78 78 79 80 78 78 78 78 78
30 29 28 28 28 27 28 27 27 29 29 27 25 26 25 24 24 25 27 29 26 23 21 20 18 18 20 21 22 22 22 22 23 23 27 30 28 26 27 28 30 31 31 32 29 27 28 28 31 38 41 39 40 42 43 46 49 49 48 48 49 51 55 60 64 68 69 69 70 71 72 74 77 78 78 77 74 73 76 75 73 75 76 75 76 77 77 76 77 77 77 77 77 78 78 77 76
34 33 31 32 31 31 32 32 31 32 31 27 26 25 26 26 25 25 27 28 26 24 22 21 19 18 19 20 22 21 20 21 22 23 27 31 31 29 28 28 29 30 31 33 31 27 27 27 27 32 39 41 41 41 41 42 44 44 44 43 42 42 44 48 52 56 59 60 61 63 66 67 69 70 70 68 64 62 64 66 67 72 75 74 75 75 73 72 74 75 75 75 76 76 76 76 75
37 35 35 36 35 35 37 36 34 35 33 31 29 28 29 28 26 26 27 27 27 26 25 22 20 18 18 20 22 23 21 21 22 24 28 30 29 28 27 28 28 29 30 32 32 28 26 27 26 27 31 36 40 41 40 41 42 42 41 38 38 40 38 38 39 42 46 49 52 57 62 64 63 62 62 60 58 57 57 59 61 65 68 68 69 69 69 70 71 72 72 72 73 74 74 74 73
38 38 38 39 40 42 42 39 37 36 35 35 34 33 32 30 28 26 26 27 28 28 28 25 23 21 20 22 23 23 22 23 23 25 28 29 26 25 25 27 28 28 30 32 32 30 26 26 26 26 27 30 34 36 38 41 42 43 41 36 35 36 37 37 35 35 37 39 43 47 50 53 53 53 55 54 53 54 55 56 59 63 65 66 65 64 64 65 65 65 66 66 67 68 69 69 68
40 39 38 39 40 43 45 42 40 39 38 38 37 35 34 33 32 30 27 28 28 29 30 29 27 26 26 26 25 25 24 23 25 27 29 30 27 25 25 26 29 29 29 30 31 31 28 26 26 26 26 26 28 30 31 33 35 37 39 37 34 34 36 38 36 34 35 37 38 40 41 43 44 45 46 46 45 47 48 50 53 58 61 63 63 63 62 63 64 63 62 61 60 59 60 60 59
40 39 39 40 40 42 44 42 41 41 40 39 37 36 33 33 33 32 30 30 29 31 32 34 34 33 31 29 25 26 26 24 25 27 30 33 32 30 28 26 29 30 30 31 31 31 31 28 26 26 26 25 26 28 28 28 30 31 33 34 34 35 36 36 34 33 35 37 38 39 40 41 42 42 43 43 42 42 43 44 45 48 52 56 58 60 61 63 65 65 63 61 59 57 56 55 52
41 40 40 41 40 43 45 44 44 44 44 42 38 36 34 32 34 33 31 31 32 32 33 34 35 35 34 32 28 27 28 26 25 26 29 33 36 36 32 28 28 31 31 32 32 32 33 32 29 27 27 25 24 26 28 29 30 30 30 30 32 33 34 35 34 33 35 37 38 39 41 41 41 42 42 43 43 42 41 42 42 42 44 47 51 55 58 60 62 62 62 61 61 60 58 55 51
39 41 41 40 40 43 46 47 47 46 46 44 40 40 39 35 35 37 35 33 34 34 33 34 34 35 35 36 33 31 30 29 28 27 29 32 35 38 36 31 30 31 32 33 34 34 34 34 32 30 29 27 25 25 26 28 29 31 31 31 31 31 32 33 34 35 36 38 39 40 42 41 40 41 42 44 45 43 43 45 45 44 42 41 42 46 50 53 56 58 59 59 60 60 59 56 52
34 36 37 37 40 42 45 50 49 47 48 44 40 41 41 38 39 43 40 37 37 36 35 36 35 35 35 37 37 35 33 33 31 30 30 31 34 38 39 37 34 33 33 35 36 35 36 36 34 32 31 29 27 25 25 26 27 29 31 31 32 31 31 31 32 33 35 37 38 39 39 39 39 39 41 42 42 43 45 47 49 49 48 45 43 42 42 44 47 50 53 55 57 57 56 54 51
31 31 33 34 36 38 40 44 45 46 46 44 41 38 38 41 44 45 41 38 38 38 38 37 36 36 36 37 39 38 36 36 35 34 33 33 34 37 40 43 42 37 35 36 37 37 37 37 36 34 32 31 30 28 26 25 26 27 28 30 31 32 32 32 32 32 34 35 35 36 38 39 39 38 39 38 37 38 41 43 46 49 50 50 49 47 45 44 43 44 46 47 49 50 49 49 49
27 29 33 35 36 35 35 35 35 39 41 41 42 36 33 40 44 43 43 40 38 39 40 39 37 38 39 38 40 41 39 39 39 39 38 37 36 37 39 45 48 44 39 37 39 39 38 39 38 35 32 31 32 30 28 27 26 26 26 28 30 32 33 33 33 33 33 33 35 37 39 39 38 36 36 36 35 34 36 39 41 44 47 49 50 51 51 50 48 45 44 44 44 44 45 46 47
22 25 28 33 37 38 40 39 33 34 36 36 39 37 34 39 43 41 43 42 38 39 42 42 40 39 40 40 42 44 43 42 42 41 40 40 39 39 41 45 49 48 43 40 40 41 39 40 41 37 33 32 32 32 31 31 30 28 27 28 29 31 32 33 33 33 33 34 37 39 40 39 38 36 35 36 35 34 36 39 40 42 43 46 49 53 55 56 54 51 48 46 46 46 46 48 50